Regional Weather Roundup
Issued by NWS Upton, NY

Current Version | Previous Version | Graphics & Text | Print | Product List | Glossary Off
Versions: 1 2 3 4 5 6 7 8 9 10 11 12 13 14 15 16 17 18 19 20 21 22 23 24 25 26 27 28 29 30 31 32 33 34 35 36 37 38 39 40 41 42 43 44 45 46 47

000
ASUS41 KOKX 121005
RWROKX

REGIONAL WEATHER ROUNDUP
NATIONAL WEATHER SERVICE NEW YORK NY
600 AM EDT SAT JUL 12 2014

NOTE: "FAIR" INDICATES FEW OR NO CLOUDS BELOW 12,000 FEET WITH NO
SIGNIFICANT WEATHER AND/OR OBSTRUCTIONS TO VISIBILITY.

NYZ071-072-176-178-NJZ106-104-121100-
NEW YORK CITY METRO AREA


CITY           SKY/WX    TMP DP  RH WIND       PRES   REMARKS
CENTRAL PARK   CLEAR     71  61  70 CALM      30.25R
LAGUARDIA APRT PTCLDY    71  65  81 S5        30.22R
KENNEDY INTL   PTCLDY    67  65  93 SE3       30.24R FOG
NEWARK/LIBERTY MOCLDY    69  65  86 S3        30.23R
BRNX BOT. GARD   N/A     64  64 100 N1        30.25R
TETERBORO      CLEAR     69  64  84 CALM      30.22R
$$

NYZ177-179-078>081-121100-
LONG ISLAND NEW YORK

CITY           SKY/WX    TMP DP  RH WIND       PRES   REMARKS
FARMINGDALE    CLEAR     65  63  93 CALM      30.23S
ISLIP          PTCLDY    64  60  87 CALM      30.22R
SHIRLEY        CLEAR     59  57  93 CALM      30.24S FOG
WESTHAMPTON    CLEAR     54  52  93 CALM      30.25S FOG
MONTAUK POINT    N/A     63  60  90 CALM      30.25R
$$

NYZ052-065-067-121100-
HUDSON VALLEY

CITY           SKY/WX    TMP DP  RH WIND       PRES   REMARKS
WHITE PLAINS   CLEAR     63  61  93 CALM      30.23R FOG
NEWBURGH       CLEAR     63  61  94 CALM      30.24R
MONTGOMERY     CLEAR     59  57  93 CALM      30.23R
POUGHKEEPSIE   CLEAR     61  59  93 CALM      30.22R
ALBANY         PTCLDY    58  55  90 CALM      30.22S
$$

NJZ001-105-106-008-010-013-015-019>022-104-121100-
NEW JERSEY

CITY           SKY/WX    TMP DP  RH WIND       PRES   REMARKS
NEWARK/LIBERTY MOCLDY    69  65  86 S3        30.23R
TETERBORO      CLEAR     69  64  84 CALM      30.22R
CALDWELL       PTCLDY    63  62  97 CALM      30.24R FOG
MORRISTOWN     PTCLDY    63  59  88 CALM      30.23S FOG
SOMERVILLE     PTCLDY    62  60  93 CALM      30.22R FOG
LINDEN         FAIR      70  66  87 CALM      30.25R
SUSSEX         CLEAR     62  58  86 CALM      30.24R
ANDOVER          N/A     62  60  93 CALM      30.25R
TRENTON        CLEAR     66  61  84 CALM      30.23R
MILLVILLE      FOG       67  67 100 CALM      30.23R VSB 1/4
ATLANTIC CITY  CLEAR     64  63  96 CALM      30.23S FOG
WRIGHTSTOWN    CLEAR     63  62  99 SE2       30.22R
TOMS RIVER     PTCLDY    63  61  94 CALM      30.24R
BELMAR         CLEAR     64  61  88 CALM      30.24R
$$

PAZ047>061-062-071-121100-
EASTERN PENNSYLVANIA

CITY           SKY/WX    TMP DP  RH WIND       PRES   REMARKS
PHILADELPHIA   PTCLDY    71  64  78 SW5       30.24R
ALLENTOWN      PTCLDY    65  62  90 N3        30.24R
SCRANTON       MOCLDY    63  60  90 CALM      30.23R
$$

CTZ002-004>006-009-010-012-RIZ004-006-007-MAZ004-011-015-121100-
SOUTHERN NEW ENGLAND
 IN CT

CITY           SKY/WX    TMP DP  RH WIND       PRES   REMARKS
BRADLEY INTL   PTCLDY    60  56  86 N3        30.22R
HARTFORD       CLEAR     65  61  87 CALM      30.23R
DANBURY        CLEAR     60  57  89 CALM      30.25R FOG
WTRBRY/OXFORD  CLEAR     61  55  82 CALM      30.26S
BRIDGEPORT     CLEAR     67  64  90 N3        30.23R
MERIDEN        CLEAR     61  59  93 CALM      30.23R
NEW HAVEN      PTCLDY    64  60  87 CALM      30.23R
CHESTER        FAIR      63  61  94 CALM      30.25R
GROTON         CLEAR     59  59 100 CALM      30.23R FOG
WILLIMANTIC    CLOUDY    59  56  89 CALM      30.24S

 IN RI

CITY           SKY/WX    TMP DP  RH WIND       PRES   REMARKS
PROVIDENCE     PTCLDY    60  56  86 S3        30.23
BLOCK ISLAND   PTCLDY    64  61  88 W6        30.24S
WESTERLY       PTCLDY    60  57  89 CALM      30.24S

 IN MA

CITY           SKY/WX    TMP DP  RH WIND       PRES   REMARKS
BOSTON         PTCLDY    63  57  81 SW6       30.21S
WORCESTER      CLEAR     63  54  72 W8        30.25R
WESTFIELD      NOT AVBL
PROVINCETOWN   CLEAR     61  59  94 SW5       30.23S
NANTUCKET      CLEAR     58  56  93 CALM      30.23R
$$

ANZ330-335-338-340-345-350-353-355-121100-
COASTAL MARINE OBSERVATIONS


STATION/POSITION TIME  SKY/WX   TEMP    WIND        PRES    VSBY  WAVE
                                AIR SEA DIR/SP/G                  HT/PER
                 (UTC)          (F)     (DEG/KT/KT) (MB)    (MI)  (FT/S)
NY HARB ENTRANCE NOT AVBL
4S FIRE IS       0900               70                N/A           2/ 6
23SW MTP         1000            65 66              1023.6          2/ 7
HUDSON CANYON    1000            69 70  360/  4/  6 1023.4          2/ 6
EXECUTION ROCKS  1000            67 67   CALM  /  2   N/A
WESTERN LI SOUND 1000            68     200/  2/  4   N/A           0
CENTRAL LI SOUND 0900            70 71  190/  4/  6   N/A           0
EASTERN LI SOUND 0900            65 65   CALM  /  2   N/A
ROBBINS REEF     1000            67     170/  8/  9   N/A
$$


>>>>>>>>>>>>>>>>>>>>>>>>>>>> KEY <<<<<<<<<<<<<<<<<<<<<<<<<<<
>                                                          <
>     SKY/WX - SKY CONDITION/PRESENT WEATHER               <
>     TMP    - TEMPERATURE IN FAHRENHEIT                   <
>     DP     - DEWPOINT IN FAHRENHEIT                      <
>     RH     - RELATIVE HUMIDITY IN PERCENT                <
>     WIND   - DIRECTION AND SPEED IN MPH                  <
>     PRES   - MEAN SEA LEVEL PRESSURE IN INCHES OF HG     <
>     WCI    - WIND CHILL INDEX                            <
>     VSB    - VISIBILITY IN MILES                         <
>     HX     - HEAT INDEX                                  <
>     TC     - TEMPERATURE IN CELSIUS                      <
>     VRB    - VARIABLE WIND DIRECTION                     <
>                                                          <
>>>>>>>>>>>>>>>>>>>>>>>>>>>> KEY <<<<<<<<<<<<<<<<<<<<<<<<<<<





USA.gov is the U.S. government's official web portal to all federal, state and local government web resources and services.